EN

Hourly Weather Dziwigorz

Today, 27 October, Tuesday

Time Temperature Precipitation Wind Pressure Humidity
00:00 +10°C° 0 mm 2 mps 739 mmHg 86%
01:00 +10°C° 0 mm 2 mps 739 mmHg 86%
02:00 +10°C° 0.1 mm 2 mps 739 mmHg 86%
03:00 +10°C° 0.1 mm 2 mps 739 mmHg 85%
04:00 +11°C° 0.1 mm 1 mps 740 mmHg 85%
05:00 +11°C° 0 mm 1 mps 740 mmHg 84%
06:00 +11°C° 0 mm 1 mps 740 mmHg 83%
07:00 +11°C° 0 mm 1 mps 741 mmHg 79%
08:00 +11°C° 0 mm 1 mps 741 mmHg 79%
09:00 +11°C° 0 mm 1 mps 741 mmHg 78%
10:00 +11°C° 0 mm 1 mps 742 mmHg 78%
11:00 +12°C° 0 mm 2 mps 742 mmHg 75%
12:00 +12°C° 0 mm 2 mps 742 mmHg 72%
13:00 +13°C° 0 mm 2 mps 742 mmHg 69%
14:00 +12°C° 0 mm 2 mps 742 mmHg 71%
15:00 +12°C° 0 mm 2 mps 742 mmHg 72%
16:00 +12°C° 0 mm 2 mps 742 mmHg 74%
17:00 +10°C° 0 mm 2 mps 743 mmHg 75%
18:00 +10°C° 0 mm 2 mps 743 mmHg 77%
19:00 +9°C° 0 mm 2 mps 744 mmHg 78%
20:00 +9°C° 0 mm 2 mps 744 mmHg 80%
21:00 +8°C° 0 mm 2 mps 744 mmHg 82%
22:00 +8°C° 0 mm 3 mps 744 mmHg 84%
23:00 +7°C° 0 mm 3 mps 744 mmHg 84%

Tomorrow, 28 October, Wednesday

Time Temperature Precipitation Wind Pressure Humidity
00:00 +7°C° 0 mm 3 mps 744 mmHg 84%
01:00 +7°C° 0 mm 3 mps 744 mmHg 84%
02:00 +7°C° 0 mm 3 mps 744 mmHg 85%
03:00 +7°C° 0 mm 3 mps 744 mmHg 86%
04:00 +5°C° 0 mm 3 mps 744 mmHg 87%
05:00 +5°C° 0 mm 3 mps 744 mmHg 86%
06:00 +5°C° 0 mm 3 mps 744 mmHg 86%
07:00 +5°C° 0 mm 3 mps 744 mmHg 85%
08:00 +7°C° 0 mm 4 mps 744 mmHg 75%
09:00 +10°C° 0 mm 4 mps 744 mmHg 65%
10:00 +12°C° 0 mm 5 mps 745 mmHg 55%
11:00 +12°C° 0 mm 5 mps 744 mmHg 55%
12:00 +13°C° 0 mm 5 mps 744 mmHg 54%
13:00 +13°C° 0 mm 5 mps 744 mmHg 54%
14:00 +12°C° 0 mm 4 mps 744 mmHg 59%
15:00 +12°C° 0 mm 4 mps 744 mmHg 64%
16:00 +11°C° 0 mm 4 mps 745 mmHg 70%
17:00 +10°C° 0 mm 4 mps 745 mmHg 72%
18:00 +9°C° 0 mm 5 mps 745 mmHg 75%
19:00 +8°C° 0 mm 5 mps 746 mmHg 77%
20:00 +8°C° 0 mm 5 mps 746 mmHg 78%
21:00 +8°C° 0 mm 5 mps 746 mmHg 79%
22:00 +8°C° 0 mm 5 mps 746 mmHg 80%
23:00 +8°C° 0 mm 4 mps 746 mmHg 80%

Day after tomorrow, 29 October, Thursday

Time Temperature Precipitation Wind Pressure Humidity
00:00 +8°C° 0 mm 4 mps 746 mmHg 81%
01:00 +8°C° 0 mm 4 mps 746 mmHg 81%
02:00 +8°C° 0 mm 4 mps 746 mmHg 81%
03:00 +8°C° 0 mm 4 mps 746 mmHg 80%
04:00 +8°C° 0 mm 4 mps 745 mmHg 80%
05:00 +8°C° 0 mm 4 mps 745 mmHg 80%
06:00 +8°C° 0 mm 4 mps 745 mmHg 80%
07:00 +8°C° 0 mm 4 mps 745 mmHg 80%
08:00 +9°C° 0 mm 5 mps 745 mmHg 78%
09:00 +10°C° 0 mm 5 mps 745 mmHg 75%
10:00 +10°C° 0 mm 6 mps 745 mmHg 73%
11:00 +10°C° 0.3 mm 5 mps 745 mmHg 75%
12:00 +10°C° 0.3 mm 5 mps 745 mmHg 78%
13:00 +10°C° 0.3 mm 5 mps 745 mmHg 81%
14:00 +9°C° 0.2 mm 5 mps 746 mmHg 79%
15:00 +10°C° 0.2 mm 4 mps 746 mmHg 77%
16:00 +10°C° 0.2 mm 4 mps 746 mmHg 75%
17:00 +8°C° 0.1 mm 4 mps 747 mmHg 77%
18:00 +7°C° 0.1 mm 4 mps 747 mmHg 79%
19:00 +7°C° 0.1 mm 4 mps 748 mmHg 80%
20:00 +6°C° 0 mm 4 mps 748 mmHg 81%
21:00 +6°C° 0 mm 4 mps 749 mmHg 81%
22:00 +5°C° 0 mm 4 mps 749 mmHg 82%
23:00 +5°C° 0 mm 4 mps 750 mmHg 82%

30 October, Friday

Time Temperature Precipitation Wind Pressure Humidity
00:00 +5°C° 0 mm 4 mps 750 mmHg 83%
01:00 +5°C° 0 mm 4 mps 750 mmHg 83%
02:00 +4°C° 0 mm 3 mps 750 mmHg 83%
03:00 +4°C° 0 mm 3 mps 750 mmHg 84%
04:00 +5°C° 0 mm 2 mps 750 mmHg 84%
05:00 +4°C° 0 mm 3 mps 750 mmHg 83%
06:00 +5°C° 0 mm 3 mps 750 mmHg 83%
07:00 +5°C° 0 mm 3 mps 750 mmHg 82%
08:00 +7°C° 0.4 mm 3 mps 749 mmHg 84%
09:00 +7°C° 0.4 mm 3 mps 749 mmHg 87%
10:00 +8°C° 0.4 mm 3 mps 749 mmHg 89%
11:00 +8°C° 0.6 mm 3 mps 749 mmHg 89%
12:00 +9°C° 0.6 mm 3 mps 748 mmHg 90%
13:00 +9°C° 0.6 mm 3 mps 748 mmHg 90%
14:00 +8°C° 0.4 mm 4 mps 748 mmHg 91%
15:00 +10°C° 0.4 mm 4 mps 748 mmHg 92%
16:00 +10°C° 0.4 mm 4 mps 748 mmHg 92%
17:00 +9°C° 0.3 mm 5 mps 748 mmHg 92%
18:00 +10°C° 0.3 mm 5 mps 748 mmHg 92%
19:00 +10°C° 0.3 mm 5 mps 748 mmHg 92%
20:00 +10°C° 0.2 mm 5 mps 748 mmHg 93%
21:00 +10°C° 0.2 mm 5 mps 749 mmHg 93%
22:00 +10°C° 0.2 mm 5 mps 749 mmHg 93%
23:00 +10°C° 0.3 mm 5 mps 749 mmHg 94%

31 October, Saturday

Time Temperature Precipitation Wind Pressure Humidity
00:00 +11°C° 0.3 mm 4 mps 749 mmHg 94%
01:00 +11°C° 0.3 mm 4 mps 749 mmHg 94%
02:00 +11°C° 0.2 mm 4 mps 749 mmHg 94%
03:00 +11°C° 0.2 mm 4 mps 750 mmHg 95%
04:00 +11°C° 0.2 mm 4 mps 750 mmHg 95%
05:00 +11°C° 0.2 mm 3 mps 750 mmHg 95%
06:00 +11°C° 0.2 mm 3 mps 750 mmHg 96%
07:00 +11°C° 0.2 mm 3 mps 751 mmHg 96%
08:00 +12°C° 0.1 mm 3 mps 751 mmHg 96%
09:00 +13°C° 0.1 mm 2 mps 751 mmHg 96%
10:00 +13°C° 0.1 mm 2 mps 752 mmHg 96%
11:00 +13°C° 0.3 mm 2 mps 752 mmHg 96%
12:00 +13°C° 0.3 mm 1 mps 752 mmHg 96%
13:00 +13°C° 0.3 mm 1 mps 752 mmHg 96%
14:00 +13°C° 0.1 mm 1 mps 752 mmHg 96%
15:00 +13°C° 0.1 mm 1 mps 752 mmHg 96%
16:00 +12°C° 0.1 mm 1 mps 752 mmHg 96%
17:00 +12°C° 0 mm 1 mps 752 mmHg 96%
18:00 +12°C° 0 mm 1 mps 752 mmHg 96%
19:00 +12°C° 0 mm 2 mps 753 mmHg 95%
20:00 +12°C° 0 mm 2 mps 753 mmHg 94%
21:00 +12°C° 0 mm 2 mps 753 mmHg 93%
22:00 +11°C° 0 mm 3 mps 753 mmHg 92%
23:00 +10°C° 0 mm 3 mps 753 mmHg 91%

1 November, Sunday

Time Temperature Precipitation Wind Pressure Humidity
00:00 +10°C° 0 mm 3 mps 753 mmHg 90%
01:00 +10°C° 0 mm 3 mps 753 mmHg 88%
02:00 +9°C° 0 mm 3 mps 753 mmHg 89%
03:00 +9°C° 0 mm 3 mps 753 mmHg 89%
04:00 +9°C° 0 mm 3 mps 752 mmHg 90%
05:00 +9°C° 0 mm 3 mps 752 mmHg 90%
06:00 +9°C° 0 mm 2 mps 752 mmHg 90%
07:00 +9°C° 0 mm 2 mps 752 mmHg 91%
08:00 +10°C° 0 mm 2 mps 753 mmHg 86%
09:00 +13°C° 0 mm 2 mps 753 mmHg 82%
10:00 +14°C° 0 mm 2 mps 753 mmHg 78%
11:00 +15°C° 0 mm 2 mps 752 mmHg 76%
12:00 +16°C° 0 mm 2 mps 752 mmHg 73%
13:00 +17°C° 0 mm 2 mps 752 mmHg 71%
14:00 +16°C° 0 mm 2 mps 752 mmHg 75%
15:00 +15°C° 0 mm 2 mps 752 mmHg 78%
16:00 +14°C° 0 mm 2 mps 752 mmHg 82%
17:00 +13°C° 0 mm 2 mps 752 mmHg 85%
18:00 +12°C° 0 mm 2 mps 752 mmHg 88%
19:00 +12°C° 0 mm 2 mps 752 mmHg 90%
20:00 +10°C° 0 mm 2 mps 752 mmHg 91%
21:00 +10°C° 0 mm 2 mps 752 mmHg 91%
22:00 +10°C° 0 mm 2 mps 752 mmHg 91%
23:00 +9°C° 0 mm 2 mps 752 mmHg 91%
Show more